Printer-friendly version

IAU Minor Planet Center

Minor Planet Center

MPEC 2002-C45 : 2002 CV11

The following Minor Planet Electronic Circular may be linked-to from your own Web pages, but must not otherwise be redistributed electronically.


Read MPEC 2002-C44 Read MPEC 2002-C46


M.P.E.C. 2002-C45                                Issued 2002 Feb. 8, 19:05 UT

     The Minor Planet Electronic Circulars contain information on unusual
         minor planets and routine data on comets.  They are published
   on behalf of Commission 20 of the International Astronomical Union by the
          Minor Planet Center, Smithsonian Astrophysical Observatory,
                          Cambridge, MA 02138, U.S.A.

             Prepared using the Tamkin Foundation Computer Network

                              MPC@CFA.HARVARD.EDU
          URL http://cfa-www.harvard.edu/iau/mpc.html  ISSN 1523-6714

                                   2002 CV11

Observations:
     K02C11V* C2002 02 07.23575 06 36 49.21 +21 22 47.2          19.0        704
     K02C11V  C2002 02 07.25024 06 37 04.19 +21 27 56.0          19.4        704
     K02C11V  C2002 02 07.26474 06 37 19.20 +21 33 05.9          19.4        704
     K02C11V  C2002 02 07.27914 06 37 34.17 +21 38 11.1          19.7        704
     K02C11V  C2002 02 07.29383 06 37 49.44 +21 43 22.5          19.1        704
     K02C11V  C2002 02 08.17168 06 53 40.78 +26 36 16.7                      649
     K02C11V  C2002 02 08.17421 06 53 43.35 +26 37 03.6                      649
     K02C11V  C2002 02 08.17484 06 53 43.93 +26 37 15.4                      649
     K02C11V  C2002 02 08.17547 06 53 44.66 +26 37 28.1                      649
     K02C11V  C2002 02 08.19536 06 54 06.40 +26 43 52.7          18.6 R      448
     K02C11V  C2002 02 08.19973 06 54 10.71 +26 45 14.7          18.6 R      448
     K02C11V  C2002 02 08.20903 06 54 19.91 +26 48 09.0          19.1 R      448
     K02C11V  C2002 02 08.22060 06 54 31.64 +26 51 40.0          19.0 R      448
     K02C11V  C2002 02 08.22130 06 54 32.33 +26 51 54.0          18.5 R      448

Observer details:
448 Desert Moon Observatory.  Observer B. Stevens.  0.30-m f/6.3
    Schmidt-Cassegrain + CCD.
649 Powell Observatory, Louisburg.  Observer R. Fredrick.  0.75-m Newtonian
    + CCD.
704 Lincoln Laboratory ETS, New Mexico.  Observers M. Blythe, F. Shelly,
    M. Bezpalko, R. Huber, L. Manguso, S. Adams, J. Piscitelli.  Measurers
    J. Stuart, R. Sayer, J. B. Evans, H. Viggh.  1.0-m f/2.15 reflector + CCD.

Orbital elements:
2002 CV11
Epoch 2002 Jan. 26.0 TT = JDT 2452300.5                 MPC
M  13.92535              (2000.0)            P               Q
n   0.51522583     Peri.  312.26626     -0.00406901     -0.97904073
a   1.5410059      Node   136.65664     +0.98241942     -0.04191931
e   0.3941586      Incl.   17.25760     +0.18664278     +0.19930382
P   1.91           H   23.9           G   0.15
From 14 observations 2002 Feb. 7-8.

Ephemeris:
2002 CV11                a,e,i = 1.54, 0.39, 17                  q = 0.9336
Date    TT    R. A. (2000) Decl.     Delta      r     Elong.  Phase     V
2002 01 26    03 15.11   -43 08.0    0.083    0.980    84.6    90.5    21.7
2002 01 27    03 27.19   -40 56.2    0.077    0.984    87.0    88.5    21.4
2002 01 28    03 40.19   -38 18.2    0.072    0.987    89.7    86.1    21.2
2002 01 29    03 54.14   -35 08.4    0.067    0.991    93.0    83.2    20.9
2002 01 30    04 09.06   -31 20.7    0.062    0.994    96.8    79.7    20.6
2002 01 31    04 24.93   -26 49.1    0.057    0.998   101.3    75.5    20.3
2002 02 01    04 41.70   -21 29.2    0.054    1.002   106.4    70.7    20.0
2002 02 02    04 59.27   -15 20.6    0.051    1.006   112.1    65.2    19.8
2002 02 03    05 17.48   -08 29.5    0.049    1.010   118.2    59.3    19.5
2002 02 04    05 36.16   -01 10.3    0.048    1.014   124.5    53.3    19.3
2002 02 05    05 55.05   +06 15.4    0.048    1.018   130.4    47.5    19.2
2002 02 06    06 13.93   +13 24.4    0.050    1.022   135.5    42.5    19.1
2002 02 07    06 32.53   +19 57.2    0.052    1.027   139.5    38.6    19.1
2002 02 08    06 50.63   +25 42.4    0.056    1.031   142.3    35.8    19.2
2002 02 09    07 08.03   +30 36.7    0.060    1.035   143.9    34.1    19.3
2002 02 10    07 24.58   +34 42.4    0.064    1.040   144.6    33.3    19.4
2002 02 11    07 40.17   +38 04.9    0.070    1.045   144.7    33.1    19.6
2002 02 12    07 54.76   +40 50.6    0.075    1.049   144.3    33.3    19.8
2002 02 13    08 08.31   +43 05.8    0.081    1.054   143.8    33.6    20.0
2002 02 14    08 20.86   +44 56.0    0.087    1.059   143.1    34.1    20.2
2002 02 15    08 32.43   +46 25.8    0.094    1.064   142.3    34.6    20.3
2002 02 16    08 43.07   +47 39.1    0.101    1.069   141.6    35.1    20.5
2002 02 17    08 52.85   +48 38.9    0.107    1.074   140.8    35.6    20.7
2002 02 18    09 01.83   +49 27.6    0.114    1.079   140.1    36.0    20.8
2002 02 19    09 10.08   +50 07.4    0.121    1.084   139.5    36.4    21.0
2002 02 20    09 17.66   +50 39.6    0.129    1.089   138.8    36.7    21.1
2002 02 21    09 24.63   +51 05.7    0.136    1.094   138.2    37.0    21.3
2002 02 22    09 31.04   +51 26.5    0.143    1.099   137.7    37.3    21.4
2002 02 23    09 36.95   +51 43.0    0.150    1.104   137.2    37.5    21.5
2002 02 24    09 42.41   +51 55.7    0.158    1.110   136.7    37.7    21.6
2002 02 25    09 47.46   +52 05.3    0.165    1.115   136.2    37.9    21.8
2002 02 26    09 52.13   +52 12.1    0.173    1.121   135.8    38.0    21.9
2002 02 27    09 56.46   +52 16.6    0.181    1.126   135.4    38.2    22.0
2002 02 28    10 00.49   +52 19.0    0.188    1.131   135.0    38.3    22.1
2002 03 01    10 04.23   +52 19.6    0.196    1.137   134.6    38.4    22.2
2002 03 02    10 07.73   +52 18.6    0.204    1.143   134.2    38.4    22.3
2002 03 03    10 10.99   +52 16.1    0.212    1.148   133.8    38.5    22.4
2002 03 04    10 14.05   +52 12.4    0.220    1.154   133.5    38.6    22.5
2002 03 05    10 16.91   +52 07.4    0.228    1.159   133.2    38.6    22.5
2002 03 06    10 19.61   +52 01.5    0.235    1.165   132.8    38.6    22.6
2002 03 07    10 22.14   +51 54.6    0.244    1.171   132.5    38.7    22.7

Timothy B. Spahr             (C) Copyright 2002 MPC           M.P.E.C. 2002-C45

Read MPEC 2002-C44 Read MPEC 2002-C46


Our Web policy. Index to the CBAT/MPC/ICQ pages.


Valid HTML 4.01!